Meteopurmerend
purmerend
Purmerend - Baaienwijk



My webcam  My webcam


waarschuwing voor Onweer Meer informatie blitzortung!


Regen radar Meer informatie rain snow radar


Bezoek onze andere website:

CandyAppleRed WebdesignWebdesign Purmerend Candy Apple Red

MeteopurmerendBlog

Template documentation
and downloads



Onweer van: 26-07-2021 13:00 tot: 21:00 waarschuwing voor: Onweer niveau: Geel info button
Enkele onweersbuien, lokaal met hagel en veel neerslag in korte tijd.Kans op blikseminslag, hagel en veel neerslag in korte tijd.Verkeer en buitenactiviteiten kunnen hinder ondervinden.Mijd open water en open gebied, schuil niet onder bomen.Volg weerberichten en waarschuwingen.

15 daagse weersverwachting Gävle (SE)

  • Overzicht
  • Per uur
  • 15 dagen
  • Extra
  • Vergelijk
  • Kaarten
  • Dagkaart
  • Meer »
  • Info
  • Statistieken
  • Directe link
    Temp 6h Neerslag Wind  
 04:17     21:41    Daglengte: 17:24 Vandaag
20:00
23°
 
3
 04:20     21:38    Daglengte: 17:18 Morgen
02:00
16°
 
1
08:00
20°
 
3
14:00
24°
 
5
20:00
21°
 
3
 04:22     21:36    Daglengte: 17:14 Woensdag 28 Jul
02:00
18°
 
2
08:00
18°
 
3
14:00
19°
23.3 mm
3
20:00
19°
29.8 mm
2
 04:24     21:33    Daglengte: 17:09 Donderdag 29 Jul
02:00
17°
31.4 mm
3
08:00
18°
13.0 mm
3
Locatie info
Region: Gävleborgs län
Latitude: 60.6737°N
Longitude: 17.1456°E
3 masl
Postcode: 803 20
Temp/Neerslag /Baro Onweer/Dauwpunt
    Temp Baro 1h Neerslag Dauwpunt Wind UV Bewolking  
 04:17     21:41    Daglengte: 17:24 Vandaag
16:00
25°
1017.9 hPa   15.7°
4
Windvlaag: -0.3 m/s
22%
17:00
25°
1017.5 hPa   15.6°
4
Windvlaag: 0.1 m/s
34%
18:00
24°
1017.1 hPa   15.7°
4
Windvlaag: 0.2 m/s
25%
19:00
24°
1017.0 hPa   15.3°
3
Windvlaag: -0.5 m/s
22%
20:00
23°
1016.8 hPa   14.8°
3
Windvlaag: -0.5 m/s
42%
21:00
22°
1016.9 hPa   14.7°
3
Windvlaag: -0.5 m/s
46%
22:00
21°
1017.1 hPa   14.9°
2
Windvlaag: 0.1 m/s
59%
23:00
20°
1017.4 hPa   15.2°
2
Windvlaag: 2.6 m/s
59%
 04:20     21:38    Daglengte: 17:18 Morgen
00:00
18°
1017.5 hPa   15.7°
1
Windvlaag: 2.6 m/s
63%
01:00
17°
1017.3 hPa   15.9°
1
Windvlaag: 1.7 m/s
65%
02:00
16°
1017.3 hPa   15.5°
1
Windvlaag: 1 m/s
46%
03:00
15°
1017.2 hPa   14.8°
1
Windvlaag: 0.4 m/s
32%
04:00
15°
1017.0 hPa   14.4°
1
Windvlaag: 0.5 m/s
18%
05:00
15°
1016.6 hPa   14.4°
1
Windvlaag: -0.2 m/s
11%
06:00
16°
1016.3 hPa   15.6°
2
Windvlaag: -0.9 m/s
41%
07:00
18°
1016.0 hPa   17.4°
2
Windvlaag: -1.1 m/s
26%
08:00
20°
1015.8 hPa   18.0°
3
Windvlaag: -1.1 m/s
46%
09:00
22°
1015.7 hPa
12%
16.4°
3
Windvlaag: -1 m/s
20%
10:00
23°
1015.4 hPa
14%
15.4°
3
Windvlaag: -1.1 m/s
56%
11:00
23°
1015.0 hPa
14%
15.0°
4
Windvlaag: -1.5 m/s
62%
12:00
24°
1014.6 hPa
14%
16.0°
4
Windvlaag: -1.9 m/s
36%
13:00
24°
1014.2 hPa
14%
15.9°
5
Windvlaag: -2.2 m/s
45%
14:00
24°
1013.8 hPa
18%
15.7°
5
Windvlaag: -2.1 m/s
21%
15:00
24°
1013.3 hPa
23%
16.1°
5
Windvlaag: -2.1 m/s
43%
16:00
24°
1012.9 hPa
23%
16.4°
4
Windvlaag: -2.2 m/s
46%
17:00
24°
1012.4 hPa
18%
16.5°
4
Windvlaag: -2.5 m/s
29%
18:00
23°
1012.0 hPa
15%
16.3°
4
Windvlaag: -2.4 m/s
32%
19:00
22°
1011.6 hPa
14%
16.1°
3
Windvlaag: -2.2 m/s
9%
20:00
21°
1011.4 hPa
14%
17.8°
3
Windvlaag: -4 m/s
45%
21:00
20°
1011.3 hPa
14%
17.7°
3
Windvlaag: -2.8 m/s
42%
22:00
19°
1011.3 hPa
14%
17.8°
2
Windvlaag: -1.6 m/s
47%
23:00
18°
1011.3 hPa
14%
17.6°
2
Windvlaag: 1 m/s
23%
 04:22     21:36    Daglengte: 17:14 Woensdag 28 Jul
00:00
18°
1011.2 hPa
14%
17.3°
1
Windvlaag: 2.3 m/s
34%
01:00
18°
1010.6 hPa
14%
17.2°
2
Windvlaag: 1.8 m/s
82%
02:00
18°
1010.1 hPa
14%
17.1°
2
Windvlaag: 1.5 m/s
71%
03:00
17°
1009.5 hPa
26%
16.8°
2
Windvlaag: 0.1 m/s
83%
04:00
17°
1008.9 hPa
36%
16.6°
2
Windvlaag: -0.8 m/s
83%
05:00
17°
1008.3 hPa
72%
16.6°
2
Windvlaag: -3.8 m/s
86%
06:00
17°
1008.1 hPa
37%
16.5°
3
Windvlaag: -4.6 m/s
86%
07:00
17°
1007.7 hPa
29%
16.5°
3
Windvlaag: -3.2 m/s
72%
08:00
18°
1007.4 hPa
32%
16.6°
3
Windvlaag: -1.6 m/s
83%
09:00
19°
1007.2 hPa
27%
16.9°
2
Windvlaag: -0.8 m/s
71%
10:00
20°
1007.0 hPa
78%
16.3°
3
Windvlaag: 0.8 m/s
83%
11:00
19°
1004.6 hPa 7.0 mm
100%
17.0°
4
Windvlaag: -0.8 m/s
100%
12:00
19°
1004.2 hPa 6.9 mm
100%
17.0°
4
Windvlaag: -1 m/s
99%
13:00
20°
1003.6 hPa 3.7 mm
100%
17.4°
4
Windvlaag: -0.8 m/s
99%
14:00
19°
1003.0 hPa 5.7 mm
100%
17.9°
3
Windvlaag: -0.4 m/s
98%
15:00
20°
1002.5 hPa 5.7 mm
100%
18.4°
3
Windvlaag: 0.2 m/s
100%
16:00
19°
1002.0 hPa 6.0 mm
97%
18.5°
2
Windvlaag: 0.6 m/s
98%
17:00
19°
1001.6 hPa 5.9 mm
34%
18.0°
2
Windvlaag: 0.8 m/s
95% warningclass
18:00
19°
1001.2 hPa 6.1 mm
31%
18.2°
2
Windvlaag: 0.3 m/s
93% warningclass
19:00
19°
1000.8 hPa 6.2 mm
37%
17.9°
2
Windvlaag: 0.7 m/s
83% warningclass
20:00
19°
1000.4 hPa
40%
16.5°
2
Windvlaag: 0.6 m/s
70%
21:00
19°
1000.3 hPa 6.3 mm
26%
16.5°
3
Windvlaag: 0.3 m/s
77%
22:00
18°
1000.4 hPa 6.2 mm
24%
16.9°
3
Windvlaag: 0.3 m/s
59%
23:00
18°
1000.3 hPa 6.4 mm
21%
16.5°
3
Windvlaag: -0.2 m/s
62%
 04:24     21:33    Daglengte: 17:09 Donderdag 29 Jul
00:00
18°
1000.4 hPa 6.2 mm
21%
16.5°
3
Windvlaag: -0.2 m/s
73%
01:00
17°
1000.4 hPa 6.3 mm
21%
16.1°
3
Windvlaag: 0.1 m/s
65%
02:00
17°
1000.2 hPa
21%
15.5°
3
Windvlaag: 0.9 m/s
48%
03:00
16°
999.7 hPa
21%
15.0°
3
Windvlaag: 1.8 m/s
27%
04:00
16°
999.7 hPa 6.2 mm
21%
15.0°
3
Windvlaag: 2.5 m/s
44%
05:00
16°
999.6 hPa
21%
15.0°
3
Windvlaag: 3.1 m/s
47%
06:00
16°
999.2 hPa
21%
14.9°
3
Windvlaag: 2.2 m/s
67%
07:00
17°
999.2 hPa
21%
15.1°
3
Windvlaag: 3.5 m/s
59%
08:00
18°
999.2 hPa 6.8 mm
25%
14.9°
3
Windvlaag: 3.8 m/s
57%
09:00
18°
996.7 hPa
24%
14.0°
4
Windvlaag: 10.5 m/s
8%
10:00
20°
996.5 hPa
30%
13.2°
4
Windvlaag: 9.3 m/s
9%
11:00
21°
995.9 hPa
31%
13.1°
4
Windvlaag: 8.3 m/s
18%
12:00
21°
995.4 hPa
96%
12.4°
4
Windvlaag: 7.8 m/s
75%
13:00
21°
995.0 hPa 6.4 mm
100%
12.2°
4
Windvlaag: 8.5 m/s
52%
14:00
21°
994.6 hPa 6.5 mm
100%
11.4°
4
Windvlaag: 8.3 m/s
98% warningclass
Temp/Neerslag /Baro Onweer/Dauwpunt
    Temp Baro Neerslag Dauwpunt Wind Bewolking  
 04:17     21:41    Daglengte: 17:24 Vandaag
17:00
25°
1017.5 hPa   15.6°
4
34%
20:00
23°
1016.8 hPa   14.8°
3
42%
23:00
20°
1017.4 hPa   15.2°
2
59%
 04:20     21:38    Daglengte: 17:18 Morgen
02:00
16°
1017.3 hPa   15.5°
1
46%
05:00
15°
1016.6 hPa   14.4°
1
11%
08:00
20°
1015.8 hPa   18.0°
3
46%
11:00
23°
1015.0 hPa   15.0°
4
62%
14:00
24°
1013.8 hPa   15.7°
5
21%
17:00
24°
1012.4 hPa   16.5°
4
29%
20:00
21°
1011.4 hPa   17.8°
3
45%
23:00
18°
1011.3 hPa   17.6°
2
23%
 04:22     21:36    Daglengte: 17:14 Woensdag 28 Jul
02:00
18°
1010.1 hPa   17.1°
2
71%
05:00
17°
1008.3 hPa   16.6°
2
86%
08:00
18°
1007.4 hPa   16.6°
3
83%
11:00
19°
1004.6 hPa 7.0 mm 17.0°
4
100%
14:00
19°
1003.0 hPa 16.3 mm 17.9°
3
98%
17:00
19°
1001.6 hPa 17.6 mm 18.0°
2
95% warningclass
20:00
19°
1000.4 hPa 12.2 mm 16.5°
2
70%
23:00
18°
1000.3 hPa 18.9 mm 16.5°
3
62%
 04:24     21:33    Daglengte: 17:09 Donderdag 29 Jul
02:00
17°
1000.2 hPa 12.5 mm 15.5°
3
48%
05:00
16°
999.6 hPa 6.2 mm 15.0°
3
47%
08:00
18°
999.2 hPa 6.8 mm 14.9°
3
57%
11:00
21°
995.9 hPa   13.1°
4
18%
14:00
21°
994.6 hPa 18.9 mm 11.4°
4
98% warningclass
17:00
23°
994.5 hPa 21.1 mm 12.4°
4
1%
20:00
14°
994.0 hPa 25.9 mm 13.3°
4
1%
23:00
13°
993.3 hPa 26.1 mm 11.6°
3
1%
 04:27     21:31    Daglengte: 17:04 Vrijdag 30 Jul
02:00
12°
992.1 hPa 26.2 mm 10.9°
4
1%
05:00
12°
990.9 hPa 26.4 mm 10.4°
3
1%
08:00
13°
990.6 hPa 26.6 mm 10.6°
3
1%
11:00
14°
990.5 hPa 26.8 mm 10.3°
2
1%
14:00
20°
990.3 hPa 26.8 mm 10.4°
1
1%
17:00
20°
990.9 hPa 26.9 mm 12.4°
1
1%
20:00
18°
992.1 hPa 26.9 mm 11.4°
4
1%
23:00
14°
994.2 hPa 26.9 mm 8.9°
3
0%
 04:29     21:28    Daglengte: 16:59 Zaterdag 31 Jul
02:00
12°
995.6 hPa 26.9 mm 7.5°
3
0%
05:00
11°
996.5 hPa 26.9 mm 7.4°
3
0%
08:00
15°
997.4 hPa 26.9 mm 8.0°
3
0%
11:00
20°
997.7 hPa 26.9 mm 9.4°
2
0%
14:00
22°
997.6 hPa 26.9 mm 12.4°
1
0%
17:00
21°
997.9 hPa 26.9 mm 14.3°
2
1%
20:00
18°
997.7 hPa 26.9 mm 14.1°
2
1%
23:00
17°
998.0 hPa 26.9 mm 11.8°
3
1%
 04:32     21:25    Daglengte: 16:53 Zondag 01 Aug
02:00
13°
997.9 hPa 26.9 mm 9.3°
2
1%
05:00
13°
997.2 hPa 26.9 mm 9.4°
2
0%
08:00
18°
996.5 hPa 26.9 mm 10.7°
1
1%
11:00
18°
996.0 hPa 27.0 mm 10.6°
0
1%
14:00
16°
996.3 hPa 27.4 mm 11.5°
3
1%
17:00
15°
996.5 hPa 29.2 mm 13.5°
2
1%
20:00
15°
996.5 hPa 29.6 mm 13.6°
2
1%
23:00
13°
996.6 hPa 29.7 mm 11.4°
3
1%
 04:34     21:23    Daglengte: 16:49 Maandag 02 Aug
02:00
11°
996.3 hPa 29.7 mm 9.7°
3
0%
05:00
10°
996.2 hPa 29.7 mm 9.1°
3
0%
08:00
13°
995.6 hPa 29.7 mm 10.6°
4
0%
11:00
16°
995.5 hPa 29.8 mm 10.7°
4
1%
14:00
16°
995.6 hPa 60.1 mm 11.2°
2
1%
20:00
11°
997.6 hPa 63.8 mm 8.6°
3
1%
 04:37     21:20    Daglengte: 16:43 Dinsdag 03 Aug
02:00
Voelt als: 7.8°
999.2 hPa 64.4 mm 6.8°
3
1%
08:00
13°
1000.2 hPa 64.4 mm 6.9°
2
1%
14:00
16°
1000.3 hPa 64.5 mm 6.4°
3
1%
20:00
13°
1001.5 hPa 68.6 mm 8.4°
3
1%
 04:39     21:18    Daglengte: 16:39 Woensdag 04 Aug
02:00
10°
Voelt als: 8.5°
1003.6 hPa 69.5 mm 6.1°
2
1%
08:00
14°
1004.6 hPa 69.5 mm 5.4°
4
1%
14:00
21°
1003.5 hPa 69.5 mm 6.1°
3
0%
20:00
15°
1001.5 hPa 69.9 mm 13.3°
4
1%
 04:41     21:15    Daglengte: 16:34 Donderdag 05 Aug
02:00
15°
999.3 hPa 73.9 mm 13.5°
4
1%
08:00
15°
996.8 hPa 74.4 mm 13.7°
4
1%
14:00
19°
1007.6 hPa 1.4 mm 12.9°
1
62%
20:00
17°
1007.1 hPa 2.1 mm 12.4°
1
72%
 04:44     21:12    Daglengte: 16:28 Vrijdag 06 Aug
02:00
13°
1007.3 hPa 0.6 mm 10.9°
1
68%
08:00
15°
1007.1 hPa 0.5 mm 11.9°
1
72%
14:00
19°
1007.0 hPa 1.1 mm 13.3°
1
76%
20:00
17°
1006.1 hPa 1.6 mm 12.9°
1
73%
 04:46     21:09    Daglengte: 16:23 Zaterdag 07 Aug
02:00
14°
1006.0 hPa 0.8 mm 11.4°
0
70%
08:00
16°
1005.3 hPa 0.8 mm 12.6°
1
69%
14:00
19°
1005.1 hPa 2.0 mm 13.4°
2
73%
20:00
17°
1005.0 hPa 1.6 mm 13.3°
1
69%
 04:49     21:07    Daglengte: 16:18 Zondag 08 Aug
02:00
13°
1005.3 hPa 0.8 mm 11.5°
0
59%
08:00
16°
1004.8 hPa 1.8 mm 12.4°
1
66%
14:00
20°
1005.0 hPa 0.5 mm 13.3°
1
66%
20:00
17°
1005.0 hPa 0.6 mm 12.9°
1
62%
 04:51     21:04    Daglengte: 16:13 Maandag 09 Aug
02:00
14°
1005.6 hPa 0.3 mm 11.5°
0
60%
08:00
16°
1005.7 hPa 0.6 mm 12.4°
1
72%
14:00
20°
1006.3 hPa 0.9 mm 13.4°
1
67%
20:00
17°
1006.4 hPa 1.3 mm 13.0°
1
62%
 04:54     21:01    Daglengte: 16:07 Dinsdag 10 Aug
02:00
14°
1007.0 hPa 0.5 mm 11.4°
1
62%
08:00
15°
1007.1 hPa 0.7 mm 12.2°
1
65%
14:00
19°
1007.9 hPa 0.6 mm 12.7°
1
67%
  CAPE Lifted Index Hail Supercell Tornado SRH 3km CL BTM PRES CL TOP PRES Swiss DWD icon SMHI TS
 04:17     21:41    Daglengte: 17:24 Vandaag
16:00 3 J/kg 0.0 K 0 % 0 % 0 % 0 m²/s² 0 0 4.56 3
17:00 5 J/kg 0.0 K 0 % 0 % 0 % 0 m²/s² 0 0 5.16 3
18:00 5 J/kg -0.2 K 0 % 0 % 0 % 0 m²/s² 0 0 5.38 3
19:00 0 J/kg 0.1 K 0 % 0 % 0 % 0 m²/s² 0 0 6.16 3
20:00 3 J/kg 0.5 K 0 % 0 % 0 % 0 m²/s² 0 0 6.56 3
21:00 0 J/kg 1.0 K 0 % 0 % 0 % 0 m²/s² 0 0 7.63 3
22:00 0 J/kg 2.1 K 0 % 0 % 0 % 0 m²/s² 0 0 8.94 3
23:00 0 J/kg 3.2 K 0 % 0 % 0 % 0 m²/s² 0 0 10.25 3
 04:20     21:38    Daglengte: 17:18 Morgen
00:00 0 J/kg 4.5 K 0 % 0 % 0 % 0 m²/s² 0 0 11.34 3
01:00 0 J/kg 4.7 K 0 % 0 % 0 % 0 m²/s² 0 0 10.94 3
02:00 0 J/kg 3.6 K 0 % 0 % 0 % 0 m²/s² 0 0 9.48 2
03:00 0 J/kg 2.9 K 0 % 0 % 0 % 0 m²/s² 0 0 8.81 3
04:00 0 J/kg 1.7 K 0 % 0 % 0 % 0 m²/s² 0 0 7.76 2
05:00 0 J/kg 1.6 K 0 % 0 % 0 % 0 m²/s² 0 0 7.66 45
06:00 0 J/kg 0.8 K 0 % 0 % 0 % 0 m²/s² 0 0 5.45 3
07:00 0 J/kg 0.8 K 0 % 0 % 0 % 0 m²/s² 0 0 3.17 2
08:00 0 J/kg 1.1 K 0 % 0 % 0 % 0 m²/s² 0 0 2.63 3
09:00 0 J/kg 0.6 K 0 % 0 % 0 % 0 m²/s² 0 0 2.01 2
10:00 0 J/kg -0.3 K 0 % 0 % 0 % 0 m²/s² 0 0 1.53 3
11:00 88 J/kg -0.5 K 0 % 0 % 0 % 0 m²/s² 0 0 1.57 3
12:00 262 J/kg -1.5 K 0 % 0 % 0 % 0 m²/s² 0 0 0.66 2
13:00 353 J/kg -1.5 K 0 % 0 % 0 % 0 m²/s² 0 0 0.66 3
14:00 184 J/kg -0.7 K 0 % 0 % 0 % 0 m²/s² 0 0 1.88 3
15:00 91 J/kg 0.2 K 0 % 0 % 0 % 0 m²/s² 0 0 3.35 3
16:00 49 J/kg 0.9 K 0 % 0 % 0 % 0 m²/s² 0 0 4.14 3
17:00 42 J/kg 1.1 K 0 % 0 % 0 % 0 m²/s² 0 0 4.52 3
18:00 31 J/kg 1.3 K 0 % 0 % 0 % 0 m²/s² 0 0 4.9 3
19:00 7 J/kg 1.0 K 0 % 0 % 0 % 0 m²/s² 0 0 4.63 2
20:00 1 J/kg 1.2 K 0 % 0 % 0 % 0 m²/s² 0 0 4.83 3
21:00 0 J/kg 0.6 K 0 % 0 % 0 % 0 m²/s² 0 0 4.11 2
22:00 0 J/kg 0.9 K 0 % 0 % 0 % 0 m²/s² 0 0 5.13 3
23:00 0 J/kg 0.7 K 0 % 0 % 0 % 0 m²/s² 0 0 4.24 3
 04:22     21:36    Daglengte: 17:14 Woensdag 28 Jul
00:00 0 J/kg 0.2 K 0 % 0 % 0 % 0 m²/s² 0 0 1.97 3
01:00 0 J/kg 0.3 K 0 % 0 % 0 % 0 m²/s² 0 0 1.11 3
02:00 0 J/kg -0.7 K 0 % 0 % 0 % 0 m²/s² 0 0 -0.58 3
03:00 0 J/kg -0.8 K 0 % 0 % 0 % 0 m²/s² 0 0 -0.35 3
04:00 0 J/kg -0.1 K 0 % 0 % 0 % 0 m²/s² 0 0 0.86 3
05:00 0 J/kg 0.1 K 0 % 0 % 0 % 0 m²/s² 0 0 0.13 3
06:00 0 J/kg 0.3 K 0 % 0 % 0 % 0 m²/s² 0 0 0.3 3
07:00 0 J/kg -0.3 K 0 % 0 % 0 % 0 m²/s² 0 0 -0.3 3
08:00 0 J/kg -0.7 K 0 % 0 % 0 % 0 m²/s² 0 0 -0.34 3
09:00 0 J/kg -0.6 K 0 % 0 % 0 % 0 m²/s² 0 0 -0.12 3
10:00 0 J/kg 0.2 K 0 % 0 % 0 % 0 m²/s² 0 0 0.2 3
11:00 6 J/kg 0.1 K 0 % 0 % 0 % 0 m²/s² 0 0 0.31 61
12:00 6 J/kg -0.2 K 0 % 0 % 0 % 0 m²/s² 0 0 0.1 63
13:00 53 J/kg -0.3 K 0 % 0 % 0 % 0 m²/s² 0 0 -0.27 61
14:00 0 J/kg -0.9 K 0 % 0 % 0 % 0 m²/s² 0 0 -0.9 61
15:00 83 J/kg -1.6 K 0 % 0 % 0 % 0 m²/s² 0 0 -1.48 61
16:00 0 J/kg -1.7 K 0 % 0 % 0 % 0 m²/s² 0 0 -1.16 61
17:00 1000 J/kg -3.5 K 0 % 0 % 0 % 0 m²/s² 0 0 -3.14 3
18:00 1093 J/kg -3.7 K 0 % 0 % 0 % 0 m²/s² 0 0 -3.43 3
19:00 1102 J/kg -3.7 K 0 % 0 % 0 % 0 m²/s² 0 0 -3.13 3
20:00 600 J/kg -2.9 K 0 % 0 % 0 % 0 m²/s² 0 0 -1.22 3
21:00 415 J/kg -2.3 K 0 % 0 % 0 % 0 m²/s² 0 0 -0.17 3
22:00 581 J/kg -2.6 K 0 % 0 % 0 % 0 m²/s² 0 0 -0.05 3
23:00 282 J/kg -2.0 K 0 % 0 % 0 % 0 m²/s² 0 0 0.85 3
 04:24     21:33    Daglengte: 17:09 Donderdag 29 Jul
00:00 129 J/kg -2.0 K 0 % 0 % 0 % 0 m²/s² 0 0 0.82 2
01:00 36 J/kg -1.7 K 0 % 0 % 0 % 0 m²/s² 0 0 1.36 2
02:00 0 J/kg -1.1 K 0 % 0 % 0 % 0 m²/s² 0 0 2.05 2
03:00 0 J/kg 1.7 K 0 % 0 % 0 % 0 m²/s² 0 0 3.86 2
04:00 0 J/kg 1.7 K 0 % 0 % 0 % 0 m²/s² 0 0 3.11 2
05:00 0 J/kg 1.6 K 0 % 0 % 0 % 0 m²/s² 0 0 3.07 2
06:00 0 J/kg 2.4 K 0 % 0 % 0 % 0 m²/s² 0 0 4.11 2
07:00 0 J/kg 2.4 K 0 % 0 % 0 % 0 m²/s² 0 0 3.69 3
08:00 0 J/kg 1.8 K 0 % 0 % 0 % 0 m²/s² 0 0 2.85 2
09:00 0 J/kg 1.0 K 0 % 0 % 0 % 0 m²/s² 0 0 2.14 2
10:00 98 J/kg -0.2 K 0 % 0 % 0 % 0 m²/s² 0 0 1 2
11:00 220 J/kg -0.9 K 0 % 0 % 0 % 0 m²/s² 0 0 0.36 3
12:00 382 J/kg -1.8 K 0 % 0 % 0 % 0 m²/s² 0 0 -0.12 3
13:00 400 J/kg -2.0 K 0 % 0 % 0 % 0 m²/s² 0 0 0.01 80
14:00 472 J/kg -2.3 K 0 % 0 % 0 % 0 m²/s² 0 0 0.04 95
Temp Baro Wind Neerslag
  EWN Forecast EWN WRFDA DWD ICON FMI HIRLAM MET Norway GFS
 04:17     21:41    Daglengte: 17:24 Vandaag
17:00 24.5° 1017.5 hPa 4.1 m/s 0.0 mm 24.3° 1016.7 hPa 5.7 m/s 0.0 mm 24.7° 1017.5 hPa 3.7 m/s -2.0 mm 24.6° 1017.5 hPa 4.3 m/s 0.0 mm 24.8° 1017.0 hPa 4.7 m/s
20:00 23.0° 1016.8 hPa 3.1 m/s 0.0 mm 22.5° 1016.1 hPa 3.9 m/s 0.0 mm 23.1° 1016.3 hPa 3.0 m/s 0.0 mm 23.3° 1017.0 hPa 3.0 m/s 0.0 mm 22.5° 1016.6 hPa 3.4 m/s
23:00 19.7° 1017.4 hPa 1.7 m/s 0.0 mm 17.9° 1016.3 hPa 2.8 m/s 0.0 mm 19.2° 1017.2 hPa 1.5 m/s 0.0 mm 19.8° 1017.7 hPa 1.5 m/s 0.0 mm 18.6° 1017.1 hPa 2.2 m/s
 04:20     21:38    Daglengte: 17:18 Morgen
02:00 16.4° 1017.3 hPa 1.3 m/s 0.0 mm 17.0° 1016.3 hPa 2.5 m/s 0.0 mm 16.0° 1016.9 hPa 0.9 m/s 0.0 mm 15.2° 1017.7 hPa 1.1 m/s 0.0 mm 15.2° 1017.1 hPa 1.1 m/s
05:00 14.6° 1016.6 hPa 1.4 m/s 0.0 mm 16.4° 1015.0 hPa 3.0 m/s 0.0 mm 13.8° 1016.5 hPa 0.9 m/s 0.0 mm 13.5° 1017.1 hPa 1.1 m/s 0.0 mm 14.7° 1016.7 hPa 0.8 m/s
08:00 20.4° 1015.8 hPa 2.5 m/s 0.0 mm 20.4° 1014.3 hPa 4.3 m/s 0.0 mm 20.7° 1015.8 hPa 2.4 m/s 0.0 mm 18.7° 1016.7 hPa 1.4 m/s 0.0 mm 21.1° 1015.7 hPa 2.8 m/s
11:00 23.0° 1015.0 hPa 3.7 m/s 0.0 mm 21.6° 1013.3 hPa 5.2 m/s 1.1 mm 22.8° 1015.0 hPa 3.6 m/s 0.0 mm 24.3° 1015.6 hPa 3.3 m/s 0.0 mm 23.3° 1014.7 hPa 4.4 m/s
14:00 24.3° 1013.8 hPa 4.7 m/s 0.0 mm 24.5° 1012.4 hPa 6.5 m/s 1.6 mm 24.3° 1013.7 hPa 4.7 m/s 0.0 mm 24.3° 1014.5 hPa 4.3 m/s 0.0 mm 24.1° 1013.2 hPa 5.1 m/s
17:00 23.8° 1012.4 hPa 4.3 m/s 0.0 mm 23.4° 1011.2 hPa 5.6 m/s 1.6 mm 23.4° 1012.3 hPa 4.2 m/s 0.0 mm 23.9° 1013.2 hPa 4.0 m/s 0.0 mm 23.2° 1011.9 hPa 5.1 m/s
20:00 21.2° 1011.4 hPa 3.2 m/s 0.0 mm 19.7° 1009.8 hPa 3.9 m/s 1.6 mm 21.4° 1011.2 hPa 3.1 m/s 0.0 mm 20.5° 1012.3 hPa 2.1 m/s 0.0 mm 22.3° 1011.0 hPa 3.7 m/s
23:00 18.2° 1011.3 hPa 1.9 m/s 0.0 mm 16.9° 1009.5 hPa 2.5 m/s 1.6 mm 18.3° 1010.5 hPa 1.8 m/s 0.0 mm 16.8° 1012.1 hPa 2.5 m/s 0.0 mm 18.3° 1011.4 hPa 2.0 m/s
 04:22     21:36    Daglengte: 17:14 Woensdag 28 Jul
02:00 17.5° 1010.1 hPa 1.7 m/s 0.0 mm 18.1° 1007.6 hPa 3.0 m/s 1.6 mm 17.7° 1009.3 hPa 2.2 m/s 0.0 mm 15.2° 1011.0 hPa 1.6 m/s 0.0 mm 16.9° 1010.4 hPa 1.4 m/s
05:00 17.0° 1008.3 hPa 2.4 m/s 0.0 mm 17.8° 1005.3 hPa 3.3 m/s 2.5 mm 17.2° 1007.4 hPa 2.7 m/s 0.0 mm 15.4° 1009.6 hPa 2.3 m/s 0.0 mm 16.7° 1008.1 hPa 2.4 m/s
08:00 17.6° 1007.4 hPa 2.5 m/s 0.0 mm 17.5° 1003.8 hPa 4.0 m/s 24.0 mm 19.1° 1005.5 hPa 3.0 m/s 0.0 mm 17.4° 1008.6 hPa 2.4 m/s 0.0 mm 16.3° 1006.3 hPa 3.8 m/s
11:00 19.0° 1004.6 hPa 3.6 m/s 7.0 mm 20.1° 1002.0 hPa 6.9 m/s 47.2 mm 18.9° 1004.4 hPa 3.6 m/s 2.5 mm 16.3° 1004.9 hPa 2.7 m/s
14:00 19.2° 1003.0 hPa 3.0 m/s 16.3 mm 19.2° 1000.7 hPa 6.1 m/s 48.6 mm 18.3° 1002.5 hPa 2.8 m/s 3.8 mm 17.4° 1004.1 hPa 2.7 m/s
17:00 19.4° 1001.6 hPa 2.1 m/s 17.6 mm 21.5° 999.2 hPa 3.6 m/s 51.5 mm 18.4° 1000.9 hPa 2.2 m/s 0.2 mm 22.8° 1002.8 hPa 3.2 m/s
20:00 19.1° 1000.4 hPa 2.4 m/s 12.2 mm 21.3° 999.1 hPa 4.0 m/s 54.2 mm 18.8° 999.4 hPa 2.5 m/s 0.0 mm 20.8° 1002.1 hPa 3.2 m/s
23:00 18.2° 1000.3 hPa 3.2 m/s 18.9 mm 18.9° 999.4 hPa 3.6 m/s 54.5 mm 17.8° 999.2 hPa 4.3 m/s 0.0 mm 16.6° 1001.9 hPa 2.3 m/s
 04:24     21:33    Daglengte: 17:09 Donderdag 29 Jul
02:00 16.8° 1000.2 hPa 2.9 m/s 12.5 mm 16.7° 999.9 hPa 4.1 m/s 54.5 mm 16.1° 998.4 hPa 3.3 m/s 0.0 mm 15.6° 1001.0 hPa 2.6 m/s
05:00 16.0° 999.6 hPa 2.7 m/s 6.2 mm 14.3° 999.5 hPa 3.5 m/s 54.5 mm 15.8° 997.4 hPa 2.8 m/s 0.0 mm 15.6° 1000.3 hPa 2.7 m/s
08:00 18.0° 999.2 hPa 3.2 m/s 6.8 mm 18.0° 999.3 hPa 4.6 m/s 54.5 mm 17.7° 996.4 hPa 3.5 m/s 0.0 mm 19.0° 999.1 hPa 3.5 m/s
11:00 20.8° 995.9 hPa 3.8 m/s 0.0 mm 22.1° 998.8 hPa 5.0 m/s 54.5 mm 20.5° 995.2 hPa 3.5 m/s 0.0 mm 22.9° 998.2 hPa 4.0 m/s
14:00 20.7° 994.6 hPa 4.0 m/s 18.9 mm 23.9° 998.0 hPa 5.8 m/s 54.5 mm 19.9° 993.7 hPa 3.6 m/s 1.1 mm 22.6° 996.9 hPa 4.3 m/s
17:00 23.0° 994.5 hPa 3.7 m/s 21.1 mm 23.0° 994.5 hPa 3.7 m/s 21.1 mm
20:00 14.2° 994.0 hPa 3.6 m/s 25.9 mm 14.2° 994.0 hPa 3.6 m/s 25.9 mm
23:00 12.9° 993.3 hPa 3.5 m/s 26.1 mm 12.9° 993.3 hPa 3.5 m/s 26.1 mm
 04:27     21:31    Daglengte: 17:04 Vrijdag 30 Jul
02:00 12.0° 992.1 hPa 3.6 m/s 26.2 mm 12.0° 992.1 hPa 3.6 m/s 26.2 mm
05:00 11.8° 990.9 hPa 3.3 m/s 26.4 mm 11.8° 990.9 hPa 3.3 m/s 26.4 mm
08:00 12.7° 990.6 hPa 2.9 m/s 26.6 mm 12.7° 990.6 hPa 2.9 m/s 26.6 mm
11:00 14.2° 990.5 hPa 2.5 m/s 26.8 mm 14.2° 990.5 hPa 2.5 m/s 26.8 mm
14:00 19.7° 990.3 hPa 1.0 m/s 26.8 mm 19.7° 990.3 hPa 1.0 m/s 26.8 mm
17:00 19.7° 990.9 hPa 1.1 m/s 26.9 mm 19.7° 990.9 hPa 1.1 m/s 26.9 mm
20:00 18.5° 992.1 hPa 3.6 m/s 26.9 mm 18.5° 992.1 hPa 3.6 m/s 26.9 mm
23:00 14.4° 994.2 hPa 3.4 m/s 26.9 mm 14.4° 994.2 hPa 3.4 m/s 26.9 mm
 04:29     21:28    Daglengte: 16:59 Zaterdag 31 Jul
02:00 11.8° 995.6 hPa 2.7 m/s 26.9 mm 11.8° 995.6 hPa 2.7 m/s 26.9 mm
05:00 10.9° 996.5 hPa 2.7 m/s 26.9 mm 10.9° 996.5 hPa 2.7 m/s 26.9 mm
08:00 15.4° 997.4 hPa 3.1 m/s 26.9 mm 15.4° 997.4 hPa 3.1 m/s 26.9 mm
11:00 19.8° 997.7 hPa 1.7 m/s 26.9 mm 19.8° 997.7 hPa 1.7 m/s 26.9 mm
14:00 21.8° 997.6 hPa 0.9 m/s 26.9 mm 21.8° 997.6 hPa 0.9 m/s 26.9 mm
17:00 20.6° 997.9 hPa 1.6 m/s 26.9 mm 20.6° 997.9 hPa 1.6 m/s 26.9 mm
20:00 18.3° 997.7 hPa 2.4 m/s 26.9 mm 18.3° 997.7 hPa 2.4 m/s 26.9 mm
23:00 17.4° 998.0 hPa 2.9 m/s 26.9 mm 17.4° 998.0 hPa 2.9 m/s 26.9 mm
 04:32     21:25    Daglengte: 16:53 Zondag 01 Aug
02:00 13.4° 997.9 hPa 2.3 m/s 26.9 mm 13.4° 997.9 hPa 2.3 m/s 26.9 mm
05:00 12.5° 997.2 hPa 1.7 m/s 26.9 mm 12.5° 997.2 hPa 1.7 m/s 26.9 mm
08:00 17.5° 996.5 hPa 0.9 m/s 26.9 mm 17.5° 996.5 hPa 0.9 m/s 26.9 mm
11:00 17.9° 996.0 hPa 0.3 m/s 27.0 mm 17.9° 996.0 hPa 0.3 m/s 27.0 mm
14:00 15.9° 996.3 hPa 2.7 m/s 27.4 mm 15.9° 996.3 hPa 2.7 m/s 27.4 mm
17:00 14.8° 996.5 hPa 2.2 m/s 29.2 mm 14.8° 996.5 hPa 2.2 m/s 29.2 mm
20:00 15.1° 996.5 hPa 2.0 m/s 29.6 mm 15.1° 996.5 hPa 2.0 m/s 29.6 mm
23:00 12.9° 996.6 hPa 3.1 m/s 29.7 mm 12.9° 996.6 hPa 3.1 m/s 29.7 mm
 04:34     21:23    Daglengte: 16:49 Maandag 02 Aug
02:00 11.3° 996.3 hPa 3.4 m/s 29.7 mm 11.3° 996.3 hPa 3.4 m/s 29.7 mm
05:00 10.4° 996.2 hPa 3.5 m/s 29.7 mm 10.4° 996.2 hPa 3.5 m/s 29.7 mm
08:00 13.2° 995.6 hPa 4.1 m/s 29.7 mm 13.2° 995.6 hPa 4.1 m/s 29.7 mm
11:00 16.3° 995.5 hPa 3.7 m/s 29.8 mm 16.3° 995.5 hPa 3.7 m/s 29.8 mm
14:00 16.4° 995.6 hPa 2.0 m/s 30.3 mm 16.4° 995.6 hPa 2.0 m/s 30.3 mm
20:00 10.8° 997.6 hPa 2.9 m/s 32.2 mm 10.8° 997.6 hPa 2.9 m/s 32.2 mm
 04:37     21:20    Daglengte: 16:43 Dinsdag 03 Aug
02:00 9.2° 999.2 hPa 2.6 m/s 32.2 mm 9.2° 999.2 hPa 2.6 m/s 32.2 mm
08:00 12.6° 1000.2 hPa 2.0 m/s 32.2 mm 12.6° 1000.2 hPa 2.0 m/s 32.2 mm
14:00 16.3° 1000.3 hPa 3.0 m/s 32.3 mm 16.3° 1000.3 hPa 3.0 m/s 32.3 mm
20:00 12.9° 1001.5 hPa 2.7 m/s 34.7 mm 12.9° 1001.5 hPa 2.7 m/s 34.7 mm
 04:39     21:18    Daglengte: 16:39 Woensdag 04 Aug
02:00 9.7° 1003.6 hPa 2.5 m/s 34.7 mm 9.7° 1003.6 hPa 2.5 m/s 34.7 mm
08:00 13.7° 1004.6 hPa 3.7 m/s 34.7 mm 13.7° 1004.6 hPa 3.7 m/s 34.7 mm
14:00 20.6° 1003.5 hPa 3.0 m/s 34.7 mm 20.6° 1003.5 hPa 3.0 m/s 34.7 mm
20:00 14.9° 1001.5 hPa 3.8 m/s 35.1 mm 14.9° 1001.5 hPa 3.8 m/s 35.1 mm
 04:41     21:15    Daglengte: 16:34 Donderdag 05 Aug
02:00 14.6° 999.3 hPa 4.0 m/s 37.0 mm 14.6° 999.3 hPa 4.0 m/s 37.0 mm
08:00 15.3° 996.8 hPa 4.1 m/s 37.2 mm 15.3° 996.8 hPa 4.1 m/s 37.2 mm
14:00 18.6° 1007.6 hPa 1.3 m/s 1.4 mm
20:00 16.6° 1007.1 hPa 0.6 m/s 2.1 mm
 04:44     21:12    Daglengte: 16:28 Vrijdag 06 Aug
02:00 13.2° 1007.3 hPa 0.7 m/s 0.6 mm
08:00 15.1° 1007.1 hPa 0.8 m/s 0.5 mm
14:00 19.3° 1007.0 hPa 1.0 m/s 1.1 mm
20:00 17.0° 1006.1 hPa 1.3 m/s 1.6 mm
 04:46     21:09    Daglengte: 16:23 Zaterdag 07 Aug
02:00 13.7° 1006.0 hPa 0.2 m/s 0.8 mm
08:00 15.6° 1005.3 hPa 0.6 m/s 0.8 mm
14:00 18.7° 1005.1 hPa 1.5 m/s 2.0 mm
20:00 16.7° 1005.0 hPa 1.1 m/s 1.6 mm
 04:49     21:07    Daglengte: 16:18 Zondag 08 Aug
02:00 13.4° 1005.3 hPa 0.5 m/s 0.8 mm
08:00 15.6° 1004.8 hPa 1.1 m/s 1.8 mm
14:00 20.2° 1005.0 hPa 1.5 m/s 0.5 mm
20:00 17.3° 1005.0 hPa 1.2 m/s 0.6 mm
 04:51     21:04    Daglengte: 16:13 Maandag 09 Aug
02:00 13.8° 1005.6 hPa 0.4 m/s 0.3 mm
08:00 15.6° 1005.7 hPa 0.5 m/s 0.6 mm
14:00 19.6° 1006.3 hPa 1.0 m/s 0.9 mm
20:00 16.8° 1006.4 hPa 0.6 m/s 1.3 mm
 04:54     21:01    Daglengte: 16:07 Dinsdag 10 Aug
02:00 13.5° 1007.0 hPa 0.9 m/s 0.5 mm
08:00 15.0° 1007.1 hPa 1.2 m/s 0.7 mm
14:00 18.9° 1007.9 hPa 1.0 m/s 0.6 mm
FMI Hirlam - 7.5 km EWN WRFDA - 12 km DWD ICON - 7 km GFS - 25 km Basiskaart